DMSP 5D-2 F13 DEB, 40677

Orbit data source: Space-Track

DMSP 5D-2 F13 DEB, 40677 is space debris in SSO originally from a launch on Fri, 24 Mar 1995 UTC launched from the Air Force Western Test Range (AFWTR). Debris objects in space refer to the collection of defunct objects orbiting the Earth. Examples of debris include non-operational satellites, rocket bodies, and fragments generated from explosions, collisions, or faulty payload assembly.

Loading next visibility...
Identifier
40677, 1995-015FR
Orbit
SSO
Last TLE update
1 day ago
Origin
Manufacturer
Unknown
Mission
Spacecraft
Bus & Motor
Unknown
Mass
Unknown
Launch date (UTC)
1995-03-24 (30 years ago)
Launch vehicle
Unknown
Launch site
Air Force Western Test Range (AFWTR)
Object type
Payload
Rocket body
Debris
Shape & HBR
Unknown
Radar Cross Section
Small (<0.1 m²)

Expand to show TLE details & history

TLE from 1 day ago
0 DMSP 5D-2 F13 DEB
1 40677U 95015FR  25190.78395556  .00000324  00000-0  14742-3 0  9999
2 40677  98.6051 207.9625 0048394 185.7760 174.2868 14.27647440531563
Epoch: 2025-07-09T18:48Z
TLE epoch observation values (Epoch: 2025-07-09T18:48:53.76Z)
Latitude
-0.00011°
Longitude
-2.22111°
Altitude
837.106 km
Speed
7.416 km/s
True Right ascension
13h 51m 51s
True Declination
0° 00' 00"
Sunlit
Object was in daylight at epoch
Visualization orbit readout
Latitude
-33.83225°
Longitude
4.87396°
Altitude
840.414 km
Speed
7.417 km/s
Apparent Right ascension
12h 14m 25s
Apparent Declination
-80° 28' 57"
Sunlit
Object is in daylight
Visualization observer readout
Local Sidereal Time
14:53:22
Azimuth
187.189° SSW
Elevation
-32.365°
Doppler factor
1
Orbital elements
Apogee altitude
831.471 km
Perigee altitude
762.026 km
Semi-major axis
7,174.886 km
Eccentricity
0.00484
Inclination
98.6051°
RAAN
207.9625°
Arg. of periapsis
185.776°
True anomaly
Unknown
Mean anomaly
174.2868°
Eccentric anomaly
Unknown
Mean motion
3.57125 °/min
Orbital period
100.8 mins
BSTAR
0.00014742
Loading maneuver chart data...
Loading SW <> Apogee altitude chart data...

DMSP 5D-2 F13 DEB Visibility forecast

Observer location: undefined°, undefined°

Span
Click to sort rows by Start time (UTC) header in descending order
Start Az.
Max El. time (UTC)
Max El. Az.
Max El.
End time (UTC)
End Az.
8 mins2025-07-11 13:27:47.011Z34.954° NE2025-07-11 13:31:47.011Z104.7° ESE31.857°2025-07-11 13:35:47.011Z164.217° S
6 mins2025-07-11 15:08:47.011Z330.017° NNW2025-07-11 15:10:47.011Z298.409° NW22.384°2025-07-11 15:14:47.011Z243.414° WSW
8 mins2025-07-12 00:46:47.011Z143.963° SSE2025-07-12 00:49:47.011Z91.337° ESE39.904°2025-07-12 00:54:47.011Z356.282° N
5 mins2025-07-12 02:27:47.011Z237.931° WSW2025-07-12 02:29:47.011Z262.806° W16.436°2025-07-12 02:32:47.011Z300.704° NW
|